Wind_Speed
106 97 101 101 96 61 92 67 72 65 52 55 59 56 63 60 56 56 59 60 62 62 60 62 59 57 61 65 66 66 66 70 72 75 79 80 79 82
87 84 86 83 81 55 81 70 70 67 62 55 56 62 54 57 62 62 56 62 61 65 60 64 65 70 73 68 65 66 71 74 77 80 77 81 83 85
63 73 87 96 70 71 82 65 65 65 59 56 52 56 57 58 56 65 63 61 65 66 70 71 74 70 66 66 67 69 73 79 75 75 79 83 88 89
47 67 85 86 74 58 59 75 65 66 45 53 60 63 58 61 56 58 63 69 73 73 69 73 68 70 71 74 72 74 79 74 74 78 82 87 89 93
47 53 77 75 65 55 50 61 68 57 57 63 56 60 67 70 64 66 62 65 64 65 72 70 70 73 77 78 78 75 72 75 81 82 87 91 89 94
42 52 57 52 49 55 53 70 69 68 58 62 62 57 73 68 67 68 68 63 63 68 72 69 73 77 78 74 72 74 78 81 82 86 89 92 91 96
48 55 45 52 50 50 67 69 69 66 61 58 60 70 76 71 72 68 75 75 71 71 72 73 68 70 76 70 79 77 80 81 84 86 89 90 93 97
56 62 64 65 61 59 62 62 66 66 60 62 69 68 74 67 77 76 71 74 72 74 69 74 75 72 77 75 76 77 80 82 87 88 91 92 97 97
54 55 61 56 55 61 61 67 73 74 62 61 65 71 70 69 68 72 67 70 72 77 73 75 71 73 75 80 85 85 86 85 84 87 89 94 97 96
50 48 52 56 57 56 58 63 71 63 60 57 67 63 70 72 71 75 75 73 69 71 73 74 76 79 82 84 82 82 84 82 84 88 89 95 96 101
50 44 42 50 62 59 62 62 65 67 60 67 66 66 69 71 76 74 67 69 72 74 69 73 74 75 84 80 81 83 82 83 82 87 91 96 100 103
47 46 49 56 63 56 57 56 56 56 60 63 64 69 64 67 73 71 66 67 73 78 80 75 78 76 75 83 80 81 83 82 87 92 94 97 97 102
45 50 48 65 66 64 58 56 57 60 61 62 66 67 67 66 65 65 66 69 69 73 72 77 80 80 83 82 81 81 85 89 93 95 98 100 105 109
32 40 55 65 63 61 60 62 60 62 63 66 70 66 63 67 66 67 66 66 65 71 76 81 82 82 82 84 83 86 89 94 97 99 101 106 111 112
32 34 47 63 63 66 66 66 62 66 67 67 70 70 67 67 68 70 67 70 72 76 78 82 81 81 83 85 88 94 96 98 99 101 104 108 114 109
33 41 42 46 55 64 70 70 70 66 63 62 61 70 67 65 66 70 73 75 78 80 85 86 83 84 85 90 95 94 97 101 105 108 111 114 108 102
43 41 48 47 55 63 67 64 68 71 71 70 64 66 69 74 74 77 80 81 82 87 90 91 94 95 95 97 98 100 104 105 108 113 114 114 101 85
48 49 48 44 53 56 55 61 61 63 63 65 70 71 75 76 78 78 79 86 85 91 93 92 93 95 98 104 105 109 113 116 122 121 118 98 87 77
50 50 49 56 55 59 62 67 73 73 73 73 75 77 82 82 79 83 86 91 98 99 98 97 99 102 107 110 113 117 117 122 117 102 95 85 79 76
54 55 57 57 60 62 64 65 66 69 72 74 79 81 80 82 86 89 92 99 97 99 101 102 105 111 114 118 119 124 127 112 100 96 86 80 77 75
61 63 65 67 68 69 72 74 77 80 83 85 88 91 94 94 97 100 100 101 103 104 105 107 113 117 122 126 129 125 112 102 96 86 81 79 77 76
72 69 69 71 72 76 78 80 84 89 91 93 96 97 95 97 101 100 102 106 111 110 112 116 120 123 130 133 116 113 105 93 83 80 80 79 80 80
76 77 78 78 79 80 83 85 88 91 93 95 99 101 100 105 108 107 109 110 112 118 124 126 130 130 117 112 111 104 95 90 85 84 84 84 83 81
Wind_Direction
259 258 255 255 239 248 250 254 259 259 254 262 257 244 247 253 255 258 265 263 265 276 279 277 277 276 277 286 288 289 289 292 292 296 296 296 301 301
258 246 236 240 247 235 246 243 252 257 261 256 251 243 246 251 253 253 256 262 267 272 271 273 277 279 282 285 289 293 291 291 294 295 294 299 300 304
256 238 230 226 239 231 233 244 251 254 258 244 246 239 236 243 254 257 253 262 262 266 271 276 278 283 285 285 290 294 295 295 292 294 297 300 301 299
246 231 228 218 229 229 217 226 248 246 244 252 250 241 235 247 255 259 258 261 263 266 274 274 282 283 282 287 294 294 295 291 293 296 296 299 300 302
242 227 214 210 216 230 231 228 225 240 246 246 249 235 235 245 255 258 263 261 262 266 270 272 278 284 284 289 291 294 293 292 294 293 295 299 300 300
235 207 202 208 211 213 213 236 224 229 230 239 248 239 234 245 249 251 258 260 263 264 268 274 278 277 282 288 290 291 291 294 292 293 295 300 298 301
207 200 190 194 199 215 224 220 221 216 218 230 245 240 235 243 249 258 258 259 265 265 270 277 279 279 282 283 288 289 291 294 289 293 295 295 299 303
196 185 192 201 219 223 212 215 214 209 213 222 235 234 234 250 249 255 261 261 266 265 272 275 279 280 284 286 285 287 289 293 293 292 294 298 300 304
189 196 198 204 211 211 211 211 210 220 226 233 237 240 244 246 256 257 264 263 264 268 274 278 276 279 281 282 287 289 289 291 292 293 292 297 302 307
194 206 211 210 210 215 214 212 211 216 220 228 235 241 244 248 259 261 268 265 268 272 276 272 275 278 281 286 287 288 290 289 290 293 294 298 303 308
210 215 216 219 208 214 214 211 218 219 223 228 235 246 250 251 257 259 265 267 266 270 274 278 279 282 285 285 286 289 287 289 292 295 294 297 301 307
220 226 230 214 207 211 209 213 214 222 228 229 239 245 250 254 257 260 259 267 267 273 276 280 284 284 285 288 288 289 293 293 291 295 297 302 307 307
226 229 224 207 206 211 211 210 225 228 229 234 240 243 249 252 257 262 267 270 273 276 280 280 284 285 286 288 290 293 290 289 293 297 299 302 304 310
227 222 212 205 206 209 213 221 232 233 233 238 241 245 252 256 259 264 270 276 276 276 279 282 284 286 291 290 288 289 289 290 295 299 302 303 305 307
200 203 214 213 214 214 220 224 231 235 241 244 246 248 253 260 266 268 272 274 278 279 283 286 290 288 288 288 291 289 291 294 296 297 302 303 305 307
198 194 195 202 215 222 222 226 233 239 245 250 257 253 259 265 270 273 272 277 279 282 285 288 287 287 287 289 291 293 293 294 297 298 300 304 307 305
202 218 213 214 214 219 223 229 237 242 247 253 260 262 264 264 272 275 278 282 286 288 290 289 288 286 287 290 292 294 295 299 300 299 301 305 304 300
222 225 223 227 231 228 233 237 243 250 258 263 267 266 269 270 274 279 283 283 283 288 286 287 289 289 289 289 292 291 294 297 300 302 306 302 299 297
230 232 236 233 236 238 242 244 244 254 259 264 267 270 271 275 278 279 279 282 283 285 286 288 288 288 289 289 290 292 296 299 300 300 299 298 296 293
243 246 248 249 252 252 252 255 259 264 265 268 271 272 273 274 275 277 277 280 283 284 284 285 285 286 288 288 292 294 299 299 299 299 297 294 293 292
243 247 250 252 252 254 257 258 260 262 265 267 267 269 271 272 275 276 279 280 285 287 285 285 284 287 290 292 293 298 298 297 297 294 292 291 291 290
248 252 253 255 257 259 260 261 262 260 263 265 267 272 276 274 278 278 280 280 281 284 285 285 286 289 290 294 295 295 297 295 292 290 289 290 290 290
250 253 253 255 258 262 265 267 268 268 270 271 273 275 275 273 276 278 278 281 283 282 284 286 286 290 291 293 293 294 292 292 291 290 291 291 291 291
Height
10388 10408 10422 10438 10468 10472 10485 10478 10482 10490 10498 10500 10499 10503 10507 10512 10513 10512 10514 10515 10514 10512 10510 10512 10514 10513 10511 10510 10509 10506 10503 10500 10496 10490 10484 10477 10469 10462
10344 10363 10386 10407 10423 10430 10443 10460 10461 10471 10478 10483 10485 10484 10494 10498 10498 10497 10498 10498 10498 10496 10496 10497 10497 10497 10496 10494 10492 10491 10487 10482 10477 10472 10465 10458 10449 10443
10312 10331 10348 10372 10393 10412 10430 10442 10446 10454 10459 10464 10470 10470 10478 10480 10478 10479 10482 10482 10481 10481 10481 10482 10481 10480 10480 10478 10476 10474 10470 10464 10457 10452 10446 10439 10432 10421
10291 10299 10319 10342 10367 10387 10405 10428 10433 10438 10443 10451 10454 10458 10463 10464 10463 10462 10464 10466 10467 10467 10466 10465 10464 10462 10461 10460 10459 10455 10451 10444 10438 10434 10428 10421 10412 10403
10274 10283 10306 10327 10347 10369 10384 10399 10411 10420 10426 10433 10436 10439 10444 10443 10446 10447 10448 10449 10451 10452 10450 10449 10447 10445 10445 10443 10441 10436 10430 10426 10422 10417 10410 10402 10394 10385
10262 10275 10295 10313 10336 10359 10366 10380 10390 10399 10412 10419 10422 10426 10424 10427 10429 10430 10430 10433 10436 10437 10436 10436 10435 10432 10430 10427 10423 10419 10414 10410 10404 10399 10391 10384 10377 10367
10253 10268 10282 10299 10322 10338 10352 10364 10374 10382 10383 10395 10404 10405 10408 10408 10411 10414 10416 10419 10420 10420 10419 10419 10420 10417 10414 10411 10407 10403 10399 10394 10388 10381 10374 10365 10358 10350
10250 10261 10277 10293 10308 10323 10338 10345 10356 10362 10365 10370 10379 10385 10390 10389 10393 10397 10398 10402 10402 10402 10402 10401 10403 10400 10397 10395 10391 10387 10381 10376 10370 10363 10355 10349 10340 10331
10247 10257 10274 10287 10296 10306 10318 10327 10336 10342 10353 10360 10365 10370 10371 10374 10376 10380 10382 10383 10385 10386 10384 10384 10385 10385 10381 10377 10374 10369 10364 10358 10353 10346 10337 10330 10322 10313
10243 10252 10262 10272 10284 10293 10300 10310 10320 10329 10335 10342 10347 10351 10355 10360 10362 10363 10365 10367 10368 10368 10369 10367 10368 10368 10364 10361 10356 10352 10347 10341 10336 10328 10319 10311 10304 10293
10243 10248 10256 10263 10272 10282 10292 10300 10307 10313 10321 10329 10335 10338 10341 10344 10344 10347 10349 10350 10354 10353 10352 10351 10351 10347 10344 10342 10338 10333 10327 10321 10315 10309 10301 10291 10283 10274
10238 10240 10247 10254 10264 10272 10282 10289 10296 10302 10308 10313 10318 10323 10325 10327 10329 10332 10335 10336 10334 10333 10334 10333 10331 10329 10325 10323 10317 10313 10307 10301 10296 10288 10280 10272 10267 10256
10228 10232 10238 10245 10255 10264 10272 10280 10285 10290 10296 10300 10306 10308 10310 10313 10315 10318 10319 10319 10318 10316 10316 10312 10311 10308 10304 10299 10295 10290 10287 10280 10275 10268 10260 10251 10243 10235
10217 10222 10230 10239 10248 10258 10266 10271 10274 10277 10283 10287 10290 10294 10296 10297 10298 10300 10301 10301 10301 10300 10298 10294 10293 10289 10281 10276 10274 10270 10263 10258 10254 10247 10240 10229 10219 10213
10213 10217 10225 10235 10244 10249 10254 10258 10261 10265 10269 10272 10276 10279 10280 10282 10284 10284 10285 10284 10282 10282 10277 10276 10271 10267 10262 10256 10251 10246 10242 10237 10231 10228 10218 10207 10197 10186
10208 10212 10218 10224 10232 10238 10242 10246 10249 10252 10255 10259 10261 10264 10267 10269 10267 10267 10266 10264 10261 10257 10255 10253 10250 10247 10242 10236 10231 10224 10217 10212 10205 10200 10194 10182 10168 10159
10203 10207 10211 10216 10220 10225 10229 10234 10237 10240 10242 10244 10246 10248 10248 10249 10249 10247 10244 10241 10236 10235 10234 10230 10227 10222 10217 10211 10204 10198 10190 10184 10180 10171 10160 10151 10140 10134
10198 10201 10203 10207 10208 10214 10217 10221 10224 10227 10228 10228 10229 10230 10231 10231 10230 10227 10221 10220 10217 10214 10211 10206 10200 10194 10189 10183 10178 10172 10164 10156 10148 10137 10131 10120 10115 10109
10189 10191 10194 10197 10200 10204 10206 10208 10210 10212 10211 10210 10208 10209 10210 10209 10207 10206 10203 10199 10195 10192 10188 10182 10176 10169 10161 10155 10150 10141 10137 10129 10121 10107 10103 10097 10091 10087
10177 10180 10182 10186 10189 10190 10192 10193 10193 10192 10191 10190 10190 10191 10191 10188 10185 10182 10180 10178 10174 10169 10163 10158 10150 10141 10136 10129 10121 10111 10107 10097 10090 10085 10076 10072 10069 10065
10163 10165 10167 10169 10171 10172 10173 10174 10175 10175 10173 10172 10172 10170 10168 10167 10165 10162 10157 10153 10147 10141 10135 10130 10121 10114 10106 10099 10090 10085 10076 10068 10064 10057 10052 10049 10046 10043
10147 10149 10151 10153 10154 10155 10155 10157 10157 10155 10154 10153 10151 10149 10146 10143 10140 10135 10131 10124 10119 10112 10105 10098 10092 10083 10075 10068 10057 10054 10048 10040 10035 10031 10027 10024 10020 10017
10129 10130 10131 10132 10133 10133 10133 10134 10134 10133 10131 10130 10125 10123 10118 10115 10112 10106 10101 10096 10091 10083 10075 10065 10060 10053 10044 10036 10030 10023 10018 10014 10008 10002 9999 9995 9992 9990